Weather observations for the past three days for
OHIO U/ATHEN-ALBANY
Imperial (Metric)
Date Time (edt) Wind (mph) Vis. (mi.) Weather Sky Cond. Temperature (ºF) Relative Humidity Wind Chill (°F) Heat Index (°F) Pressure Precipitation (in)
Air Dwpt 6 hour altimeter (in) sea level (mb) 1 hr 3 hr 6 hr
Max. Min.
03 10:55 W 7 10.00 Fair CLR 87.1 76.1 70% 98 30.06 0.0
03 10:35 W 6 10.00 Fair CLR 86 76.1 72% 96 30.06 0.0
03 10:15 W 5 10.00 Fair CLR 84.2 76.5 78% 94 30.06 0.0
03 09:55 SW 6 10.00 Fair CLR 82 75.9 82% 89 30.06 0.0
03 09:35 SW 6 10.00 Fair CLR 80.8 75.7 85% 87 30.06 0.0
03 09:15 SW 3 10.00 Fair CLR 79.2 75.4 88% 83 30.07 0.0
03 08:35 Calm 10.00 Fair CLR 76.5 75 95% 77 30.07 0.0
03 08:15 Calm 10.00 Fair CLR 73.8 73.8 100% 30.07 0.0
03 07:55 Calm 10.00 Fair CLR 72 72 74.1 71.2 100% 30.07 0.0
03 07:35 Calm 10.00 Fair CLR 71.2 71.2 100% 30.06 0.0
03 07:15 Calm 10.00 Fair CLR 71.8 71.8 100% 30.06 0.0
03 06:55 Calm 10.00 Fair CLR 71.8 71.8 100% 30.05 0.0
03 06:35 Calm 10.00 Fair CLR 72 72 100% 30.05 0.0
03 06:15 W 3 10.00 Fair CLR 72 72 100% 30.04 0.0
03 05:55 Calm 10.00 Fair CLR 72.3 72.3 100% 30.04 0.0
03 05:35 Calm 10.00 Fair CLR 72.1 72.1 100% 30.04 0.0
03 05:15 W 3 9.00 Fair CLR 71.8 71.8 100% 30.04 0.0
03 04:55 Calm 10.00 Fair CLR 72.3 72.3 100% 30.04 0.0
03 04:35 W 3 10.00 Fair CLR 72 72 100% 30.04 0.0
03 04:15 W 3 10.00 Fair CLR 71.6 71.6 100% 30.04 0.0
03 03:55 Calm 10.00 Fair CLR 72.5 72.5 100% 30.04 0.0
03 03:35 Calm 10.00 Fair CLR 72.1 72.1 100% 30.03 0.0
03 03:15 Calm 10.00 Fair CLR 72.5 72.5 100% 30.03 0.0
03 02:55 Calm 10.00 Fair CLR 73.6 73.6 100% 30.04 0.0
03 02:35 Calm 10.00 Fair CLR 73.4 73.4 100% 30.04 0.0
03 02:15 Calm 10.00 Fair CLR 73.4 73.4 100% 30.04 0.0
03 01:55 Calm 10.00 Fair CLR 74.3 74.3 82.9 74.3 100% 30.04 0.0
03 01:35 Calm 10.00 Fair CLR 74.3 74.3 100% 30.03 0.0
03 01:15 Calm 10.00 Fair CLR 74.7 74.7 100% 30.03 0.0
03 00:55 Calm 10.00 Fair CLR 74.7 74.7 100% 30.02 0.0
03 00:35 Calm 10.00 Fair CLR 74.8 74.8 100% 30.02 0.0
03 00:15 Calm 10.00 Fair CLR 75.2 75.2 100% 73 30.02 0.0
02 23:55 W 3 10.00 Fair CLR 75.6 75.6 100% 74 30.02 0.0
02 23:35 W 3 10.00 Fair CLR 74.8 74.8 100% 30.03 0.0
02 23:15 Calm 10.00 Fair CLR 75.4 75.4 100% 73 30.03 0.0
02 22:55 Calm 8.00 Fair CLR 76.1 75.7 99% 75 30.03 0.0
02 22:35 Calm 10.00 Fair CLR 76.3 75.7 98% 76 30.03 0.0
02 22:15 Calm 10.00 Fair CLR 76.6 76.3 99% 77 30.04 0.0
02 21:55 Calm 10.00 Fair CLR 77.9 76.8 97% 80 30.04 0.0
02 21:35 Calm 10.00 Fair CLR 78.4 77.2 96% 82 30.04 0.0
02 21:15 Calm 10.00 Fair CLR 79.7 77.7 94% 85 30.03 0.0
02 20:55 Calm 10.00 Fair CLR 80.1 78.4 95% 87 30.02 0.0
02 20:35 Calm 10.00 Fair CLR 80.4 78.3 93% 87 30.02 0.0
02 20:15 Calm 10.00 Fair CLR 82.2 77.7 86% 91 30.02 0.0
02 19:55 Calm 10.00 Fair CLR 84.4 78.4 92.8 84.4 82% 96 30.01 0.0
02 19:35 S 3 10.00 Fair CLR 84.9 79.3 83% 98 30.02 0.0
02 19:15 S 3 10.00 Fair CLR 87.8 77.5 72% 101 30.02 0.0
02 18:55 S 3 10.00 Fair CLR 89.6 77.2 67% 103 30.02 0.0
02 18:35 S 5 10.00 Fair CLR 90.1 77 65% 103 30.02 0.0
02 18:15 SW 3 10.00 Fair CLR 90.5 77.4 65% 104 30.02 0.0
02 17:55 SW 6 10.00 Fair CLR 91 77 64% 105 30.03 0.0
02 17:35 SW 6 10.00 Fair CLR 91.6 76.8 62% 105 30.03 0.0
02 17:15 SW 5 10.00 Fair CLR 91.6 75.6 60% 103 30.03 0.0
02 16:55 SW 5 10.00 Fair CLR 90.9 76.3 62% 103 30.04 0.0
02 16:35 S 6 10.00 Fair CLR 91.6 75.2 59% 103 30.04 0.0
02 16:15 SW 5 10.00 Fair CLR 92.5 76.8 60% 106 30.04 0.0
02 15:55 SW 5 10.00 Fair CLR 92.3 75.9 59% 105 30.05 0.0
02 15:35 W 7 10.00 A Few Clouds FEW360 91 75.6 61% 103 30.06 0.0
02 14:55 W 6 10.00 Fair CLR 90.9 75.6 61% 102 30.07 0.0
02 14:35 SW 5 10.00 Fair CLR 92.3 75.4 58% 104 30.07 0.0
02 14:15 SW 8 10.00 Fair CLR 91.6 77 62% 105 30.07 0.0
02 13:55 SW 7 10.00 Fair CLR 91.2 76.8 91.2 73.4 63% 105 30.07 0.0
02 13:35 Vrbl 5 10.00 Fair CLR 91.2 77.7 65% 106 30.08 0.0
02 13:15 SW 6 10.00 Fair CLR 90.9 76.8 64% 104 30.08 0.0
02 12:55 S 5 10.00 Fair CLR 89.8 77.2 67% 103 30.09 0.0
02 12:35 SW 6 10.00 Fair CLR 89.1 77.5 69% 102 30.1 0.0
02 12:15 W 5 10.00 Fair CLR 88.9 77 68% 101 30.11 0.0
02 11:55 W 8 10.00 Fair CLR 88 77 70% 100 30.11 0.0
02 11:35 SW 6 10.00 Fair CLR 87.4 77.2 72% 100 30.12 0.0
02 11:15 W 6 10.00 Fair CLR 86.2 76.3 72% 97 30.12 0.0
02 10:55 SW 5 10.00 Fair CLR 84.4 75.9 76% 93 30.12 0.0
02 10:35 SW 5 10.00 Fair CLR 83.5 75.6 77% 92 30.12 0.0
02 10:15 Vrbl 3 10.00 Fair CLR 82.4 75.2 79% 89 30.12 0.0
02 09:55 SW 6 10.00 Fair CLR 80.6 75.7 85% 86 30.11 0.0
02 09:35 SW 3 10.00 Fair CLR 79.2 75 87% 83 30.11 0.0
02 09:15 S 3 9.00 Fair CLR 77.7 73.9 88% 80 30.1 0.0
02 08:55 SW 3 10.00 Fair CLR 75.6 73.6 94% 75 30.1 0.0
02 08:35 SW 5 10.00 Fair CLR 75 73.2 94% 73 30.1 0.0
02 08:15 Calm 10.00 Fair CLR 73.9 73.2 98% 30.09 0.0
02 07:35 Calm 10.00 Fair CLR 71.4 71.4 100% 30.09 0.0
02 07:15 Calm 10.00 Fair CLR 70.7 70.7 100% 30.08 0.0
02 06:55 W 3 10.00 Fair CLR 70.3 70.3 100% 30.08 0.0
02 06:35 W 3 10.00 Fair CLR 70 70 100% 30.08 0.0
02 06:15 W 3 10.00 Fair CLR 70.2 70.2 100% 30.08 0.0
02 05:55 Calm 10.00 Fair CLR 71.1 71.1 100% 30.09 0.0
02 05:35 Calm 10.00 Fair CLR 71.2 71.2 100% 30.09 0.0
02 05:15 Calm 10.00 Fair CLR 72 72 100% 30.08 0.0
02 04:55 Calm 10.00 Fair CLR 71.1 71.1 100% 30.08 0.0
02 04:35 Calm 10.00 Fair CLR 70.9 70.9 100% 30.07 0.0
02 04:15 Calm 9.00 Fair CLR 71.4 71.4 100% 30.07 0.0
02 03:55 Calm 10.00 Fair CLR 71.8 71.8 100% 30.07 0.0
02 03:35 Calm 7.00 Fair CLR 72.1 72.1 100% 30.07 0.0
02 03:15 Calm 10.00 Fair CLR 72.5 72.5 100% 30.07 0.0
02 02:35 Calm 10.00 Fair CLR 73.2 73 99% 30.06 0.0
02 02:15 Calm 10.00 Fair CLR 73.8 73.6 99% 30.06 0.0
02 01:55 Calm 10.00 Fair CLR 73.4 73.4 81.1 73.2 100% 30.06 0.0
02 01:35 Calm 10.00 Fair CLR 73.9 73.9 100% 30.06 0.0
02 01:15 Calm 10.00 Fair CLR 74.3 74.3 100% 30.06 0.0
02 00:55 Calm 10.00 Fair CLR 74.5 74.5 100% 30.05 0.0
02 00:35 Calm 10.00 Fair CLR 74.5 74.5 100% 30.05 0.0
02 00:15 S 3 10.00 Fair CLR 75.6 75.4 99% 74 30.05 0.0
01 23:55 Calm 10.00 Fair CLR 75.2 75.2 100% 73 30.05 0.0
01 23:35 Calm 10.00 Fair CLR 76.1 76.1 100% 75 30.05 0.0
01 23:15 Calm 10.00 Fair CLR 75.2 75.2 100% 73 30.05 0.0
01 22:55 Calm 10.00 Fair CLR 76.1 76.1 100% 75 30.05 0.0
01 22:35 Calm 9.00 Fair CLR 76.1 76.1 100% 75 30.05 0.0
01 22:15 Calm 9.00 Fair CLR 76.6 76.6 100% 77 30.05 0.0
01 21:55 Calm 10.00 Fair CLR 76.8 76.1 98% 77 30.05 0.0
01 21:35 Calm 10.00 Fair CLR 76.6 75.7 97% 77 30.05 0.0
01 21:15 Calm 10.00 Fair CLR 77.4 75.4 94% 79 30.05 0.0
01 20:55 Calm 10.00 Fair CLR 77.7 75.7 94% 80 30.04 0.0
01 20:35 Calm 5.00 Light Rain Fog/Mist CLR 78.6 76.5 93% 82 30.04 0.0
01 20:15 Calm 7.00 Fair CLR 79.7 77.4 93% 85 30.04 0.0
01 19:55 Calm 8.00 Light Rain CLR 81.5 78.3 90.9 81.5 90% 90 30.05 0.0
01 19:35 Calm 9.00 Fair CLR 83.8 78.6 84% 95 30.05 0.0
01 19:15 Calm 9.00 Fair CLR 87.6 75.4 67% 98 30.05 0.0
01 18:55 N 3 9.00 Fair CLR 88.5 74.8 64% 98 30.06 0.0
01 18:35 NW 3 9.00 Fair CLR 89.1 74.7 63% 99 30.06 0.0
01 18:15 W 3 10.00 Fair CLR 89.6 74.5 61% 99 30.05 0.0
01 17:55 SW 3 10.00 Fair CLR 89.4 75.2 63% 100 30.04 0.0
01 17:35 SW 8 10.00 Fair CLR 89.8 74.5 61% 100 30.03 0.0
01 17:15 SW 6 10.00 Fair CLR 89.8 75 62% 100 30.03 0.0
01 16:55 SW 7 10.00 Fair CLR 89.6 75.2 63% 100 30.04 0.0
01 16:35 S 9 10.00 Fair CLR 90.1 73.9 59% 99 30.05 0.0
01 16:15 SW 6 10.00 Fair CLR 90.3 74.3 59% 100 30.06 0.0
01 15:55 Calm 10.00 Fair CLR 89.8 73.9 60% 99 30.07 0.0
01 15:35 Calm 10.00 Fair CLR 90.7 75 60% 101 30.08 0.0
01 15:15 SW 3 10.00 A Few Clouds FEW340 88.7 73.6 61% 97 30.08 0.0
01 14:55 Vrbl 6 10.00 A Few Clouds FEW370 88.7 72.1 58% 96 30.1 0.0
01 14:35 W 6 10.00 A Few Clouds FEW360 89.4 73 59% 98 30.1 0.0
01 14:15 W 5 10.00 Fair CLR 89.8 72 56% 97 30.1 0.0
01 13:55 Vrbl 3 10.00 Fair CLR 88.9 72.3 89.2 72.5 58% 96 30.1 0.0
01 13:35 W 8 10.00 A Few Clouds FEW300 89.2 73.6 60% 98 30.11 0.0
01 13:15 W 7 10.00 A Few Clouds FEW290 88.9 73.6 61% 97 30.11 0.0
01 12:55 W 5 10.00 Fair CLR 88.5 75 64% 99 30.12 0.0
01 12:35 Vrbl 7 10.00 Fair CLR 88.9 75.9 66% 100 30.13 0.0
01 12:15 W 7 10.00 A Few Clouds FEW360 88 75.4 66% 98 30.12 0.0
01 11:55 SW 9 10.00 Fair CLR 87.1 76.6 71% 98 30.12 0.0
01 11:35 SW 9 10.00 Fair CLR 86.5 76.6 72% 98 30.11 0.0
01 11:15 SW 7 10.00 Fair CLR 85.6 76.6 75% 96 30.1 0.0
01 10:55 SW 8 10.00 Fair CLR 84.2 76.3 77% 93 30.11 0.0
01 10:35 SW 8 10.00 Fair CLR 83.3 76.3 79% 92 30.11 0.0
01 10:15 SW 6 10.00 Fair CLR 81.9 75.7 82% 89 30.1 0.0
01 09:55 SW 6 10.00 A Few Clouds FEW370 79.3 75.9 89% 84 30.1 0.0
01 09:35 SW 6 10.00 Fair CLR 79 75.6 89% 83 30.11 0.0
01 09:15 SW 3 7.00 Fair CLR 77.2 75.2 94% 78 30.11 0.0
01 08:55 W 3 10.00 Fair CLR 75 74.7 99% 72 30.12 0.0
01 08:35 W 3 8.00 Fair CLR 74.8 74.5 99% 30.12 0.0
01 08:15 Calm 7.00 Fair CLR 73.4 73.4 100% 30.11 0.0
01 07:55 Calm 8.00 Fair CLR 72.1 72.1 74.7 70 100% 30.11 0.0
01 07:35 Calm 8.00 Fair CLR 71.8 71.8 100% 30.1 0.0
01 07:15 Calm 6.00 Fog/Mist CLR 71.1 71.1 100% 30.09 0.0
01 06:55 W 3 7.00 Fair CLR 70.5 70.5 100% 30.09 0.0
01 06:35 W 3 7.00 Fair CLR 70.3 70.3 100% 30.08 0.0
01 06:15 W 3 8.00 Fair CLR 70.2 70.2 100% 30.08 0.0
01 05:55 Calm 8.00 Fair CLR 70.2 70.2 100% 30.08 0.0
01 05:35 Calm 8.00 Fair CLR 70.5 70.5 100% 30.08 0.0
01 05:15 Calm 9.00 Fair CLR 70.5 70.5 100% 30.07 0.0
01 04:55 Calm 8.00 Fair CLR 70.5 70.5 100% 30.07 0.0
01 04:35 Calm 4.00 Fog/Mist CLR 70.9 70.9 100% 30.07 0.0
01 04:15 Calm 7.00 Fair CLR 71.8 71.8 100% 30.07 0.0
01 03:35 Calm 8.00 Fair CLR 71.2 71.2 100% 30.07 0.0
01 03:15 Calm 7.00 Light Rain CLR 72.1 72.1 100% 30.06 0.0
01 02:55 Calm 7.00 Fair CLR 72.7 72.7 100% 30.07 0.0
01 02:35 Calm 5.00 Light Rain Fog/Mist CLR 73 73 100% 30.06 0.0
01 02:15 Calm 9.00 Fair CLR 73.6 73.6 100% 30.07 0.0
01 01:55 Calm 9.00 Fair CLR 74.3 74.3 80.8 73.6 100% 30.07 0.0
01 01:35 Calm 10.00 Fair CLR 75.6 74.7 97% 74 30.07 0.0
01 01:15 Calm 10.00 Fair CLR 76.6 74.8 94% 77 30.07 0.0
01 00:55 S 6 10.00 Fair CLR 77.2 75 93% 78 30.05 0.0
01 00:35 S 7 10.00 Fair CLR 77 75 94% 78 30.05 0.0
01 00:15 S 5 10.00 Fair CLR 76.8 75.7 96% 77 30.07 0.0
31 23:55 Calm 8.00 Fair CLR 73.9 73.9 100% 30.07 0.0
31 23:35 W 3 9.00 Fair CLR 73.8 73.8 100% 30.08 0.0
31 23:15 Calm 9.00 Fair CLR 74.7 74.7 100% 30.08 0.0
31 22:55 Calm 8.00 Fair CLR 74.8 74.8 100% 30.09 0.0
31 22:35 Calm 7.00 Fair CLR 75 75 100% 72 30.09 0.0
31 22:15 Calm 7.00 Fair CLR 75.4 75.4 100% 73 30.09 0.0
31 21:55 Calm 10.00 Fair CLR 75.7 75.7 100% 74 30.09 0.0
31 21:35 Calm 10.00 Fair CLR 76.5 76.5 100% 76 30.09 0.0
31 21:15 Calm 9.00 Fair CLR 77 77 100% 78 30.09 0.0
31 20:55 Calm 10.00 Fair CLR 77.9 77.9 100% 80 30.08 0.0
31 20:35 Calm 6.00 Light Rain Fog/Mist CLR 78.6 78.3 99% 82 30.07 0.0
31 20:15 Calm 7.00 Light Rain CLR 80.1 78.4 95% 87 30.07 0.0
31 19:55 Calm 10.00 Fair CLR 81.7 79 89.8 81.7 92% 91 30.06 0.0
31 19:35 Calm 10.00 Fair CLR 82.6 79.2 89% 93 30.06 0.0
31 19:15 S 5 10.00 Fair CLR 83.1 79.5 89% 95 30.06 0.0
31 18:55 S 5 9.00 Fair CLR 83.7 80.2 89% 97 30.06 0.0
31 18:35 S 3 9.00 Fair CLR 84.4 79.5 85% 97 30.06 0.0
31 18:15 Calm 8.00 Fair CLR 84.6 78.8 83% 97 30.07 0.0
31 17:55 S 3 8.00 Fair CLR 84.9 79.5 84% 98 30.07 0.0
31 17:35 Calm 10.00 Fair CLR 85.5 78.4 80% 98 30.08 0.0
31 17:15 Calm 10.00 A Few Clouds FEW370 86.5 75.2 69% 96 30.08 0.0
31 16:55 NW 3 10.00 A Few Clouds FEW380 86.7 75.7 70% 97 30.08 0.0
31 16:35 NW 3 10.00 Fair CLR 86.9 75.2 68% 96 30.08 0.0
31 16:15 Calm 10.00 A Few Clouds FEW003 87.3 76.5 70% 98 30.09 0.0
31 15:55 E 3 7.00 Light Rain FEW002 83.8 76.1 78% 93 30.09 0.0
31 15:35 NE 7 10.00 A Few Clouds FEW320 85.1 76.1 75% 95 30.1 0.0
31 15:15 N 9 10.00 A Few Clouds FEW270 87.1 75.2 68% 97 30.11 0.0
31 14:55 SW 10 10.00 A Few Clouds FEW350 89.1 73.8 61% 98 30.11 0.0
31 14:35 W 10 10.00 A Few Clouds FEW350 89.2 74.7 62% 99 30.11 0.0
31 14:15 W 12 G 16 10.00 A Few Clouds FEW350 89.1 75 63% 99 30.11 0.0
31 13:55 W 7 10.00 A Few Clouds FEW350 88.2 75 89.1 70.5 65% 98 30.12 0.0
31 13:35 W 9 10.00 Fair CLR 87.6 75.2 67% 97 30.12 0.0
31 13:15 SW 7 10.00 A Few Clouds FEW320 87.3 76.1 70% 98 30.12 0.0
31 12:55 Vrbl 6 10.00 Fair CLR 86.9 76.8 72% 98 30.13 0.0
31 12:35 Vrbl 5 10.00 Fair CLR 85.8 76.6 74% 96 30.13 0.0
31 12:15 Vrbl 5 10.00 Fair CLR 85.1 76.6 76% 95 30.13 0.0
31 11:55 SW 5 10.00 Fair CLR 82.9 75.9 79% 91 30.13 0.0
31 11:35 Vrbl 3 10.00 Fair CLR 82 75.9 82% 89 30.13 0.0
31 11:15 SW 6 10.00 Fair CLR 80.8 75.6 84% 87 30.13 0.0
Date Time (edt) Wind (mph) Vis. (mi.) Weather Sky Cond. Air Dwpt Max. Min. Relative Humidity Wind Chill (°F) Heat Index (°F) altimeter (in) sea level (mb) 1 hr 3 hr 6 hr
6 hour
Temperature (ºF) Pressure Precipitation (in)